Location: San Vito
(41.8833°N, 12.9833°E)
Time: 14:10:23
(UTC+00:00)

SJ 16-02 - Pass Details

Date: 17 November 2019
Orbit: 606 x 616 km, 75.0° (Epoch: 13 December)

Event Time Altitude Azimuth Distance (km) Brightness Sun altitude
Exits shadow 05:14:57 11° 289° (WNW) 1,900 3.2 -8.6°
Maximum altitude 05:16:03 12° 304° (NW) 1,844 3.2 -8.4°
Drops below altitude 10° 05:17:41 10° 326° (NNW) 1,964 3.5 -8.1°
Sets 05:21:25 0° 359° (N) 2,873 4.6 -7.4°
